Eveleth, MN

11:21 PM CDT on March 28, 2017 (GMT -0500)
Eveleth-Virginia Municipal

Weather History for KEVM - September, 2013

Change the Weather History Date:

Sunday, September 22, 2013

  Actual Average Record
Temperature  
Mean Temperature 46 °F -  
Max Temperature 59 °F 61 °F 73 °F (2007)
Min Temperature 32 °F 39 °F 26 °F (1998)
Degree Days  
Heating Degree Days 20    
Moisture  
Dew Point 39 °F    
Average Humidity 79    
Maximum Humidity 100    
Minimum Humidity 51    
Precipitation  
Precipitation 0.00 in - - ()
Sea Level Pressure  
Sea Level Pressure 29.98 in    
Wind  
Wind Speed 4 mph (ESE)    
Max Wind Speed 15 mph    
Max Gust Speed 21 mph    
Visibility 10 miles    
Events      
Averages and records for this station are not official NWS values.
T = Trace of Precipitation, MM = Missing Value Source: NWS Daily Summary

Daily Weather History Graph

Daily Weather History Graph

Search for Another Location

Airport or City:

Trip Planner

Search our weather history database for the weather conditions in past years. The results will help you decide how hot, cold, wet, or windy it might be!

Date:

Astronomy

Sep. 22, 2013 Rise Set
Actual Time 6:57 AM CDT 7:07 PM CDT
Civil Twilight 6:26 AM CDT 7:37 PM CDT
Nautical Twilight 5:50 AM CDT 8:13 PM CDT
Astronomical Twilight 5:13 AM CDT 8:50 PM CDT
Moon 8:40 PM CDT (9/22) 10:34 AM CDT (9/22)
Length of Visible Light 13h 11m
Length of Day
12h 10m
Waning Gibbous, 88% of the Moon is Illuminated
Sep 22
Waning Gibbous
Sep 26
Last Quarter
Oct 4
New
Oct 11
First Quarter
Oct 18
Full

Hourly Weather History & Observations

Time (CDT) Temp. Windchill Dew Point Humidity Pressure Visibility Wind Dir Wind Speed Gust Speed Precip Events Conditions
12:07 AM 32.0 °F - 32.0 °F 100% 29.99 in 10.0 mi Calm Calm - N/A   Clear
12:27 AM 32.0 °F - 32.0 °F 100% 30.00 in 10.0 mi Calm Calm - N/A   Clear
12:47 AM 32.0 °F - 32.0 °F 100% 30.00 in 10.0 mi Calm Calm - N/A   Clear
1:07 AM 32.0 °F 27.5 °F 32.0 °F 100% 30.00 in 10.0 mi NE 4.6 mph - N/A   Clear
1:27 AM 33.8 °F 29.6 °F 33.8 °F 100% 30.00 in 10.0 mi ENE 4.6 mph - N/A   Clear
1:47 AM 35.6 °F - 35.6 °F 100% 30.00 in 10.0 mi Calm Calm - N/A   Clear
2:07 AM 35.6 °F 32.8 °F 35.6 °F 100% 30.00 in 10.0 mi ENE 3.5 mph - N/A   Clear
2:27 AM 35.6 °F 32.8 °F 33.8 °F 93% 30.00 in 10.0 mi ENE 3.5 mph - N/A   Clear
2:47 AM 35.6 °F 32.8 °F 35.6 °F 100% 30.00 in 10.0 mi NE 3.5 mph - N/A   Clear
3:07 AM 33.8 °F - 33.8 °F 100% 30.00 in 10.0 mi Calm Calm - N/A   Clear
3:27 AM 32.0 °F - 32.0 °F 100% 30.00 in 10.0 mi Calm Calm - N/A   Clear
3:47 AM 32.0 °F 28.7 °F 32.0 °F 100% 30.00 in 10.0 mi NE 3.5 mph - N/A   Clear
4:07 AM 33.8 °F - 33.8 °F 100% 30.01 in 10.0 mi Calm Calm - N/A   Clear
4:27 AM 32.0 °F - 32.0 °F 100% 30.01 in 10.0 mi Calm Calm - N/A   Clear
4:47 AM 32.0 °F - 30.2 °F 93% 30.01 in 10.0 mi Calm Calm - N/A   Clear
5:07 AM 33.8 °F 30.8 °F 33.8 °F 100% 30.01 in 10.0 mi NE 3.5 mph - N/A   Clear
5:27 AM 33.8 °F 30.8 °F 33.8 °F 100% 30.01 in 10.0 mi NE 3.5 mph - N/A   Clear
5:47 AM 35.6 °F 32.8 °F 33.8 °F 93% 30.01 in 10.0 mi NE 3.5 mph - N/A   Clear
6:07 AM 35.6 °F 32.8 °F 33.8 °F 93% 30.01 in 10.0 mi NE 3.5 mph - N/A   Clear
6:27 AM 33.8 °F 30.8 °F 33.8 °F 100% 30.01 in 10.0 mi NE 3.5 mph - N/A   Clear
6:47 AM 33.8 °F 30.8 °F 33.8 °F 100% 30.01 in 10.0 mi NE 3.5 mph - N/A   Clear
7:07 AM 33.8 °F 30.8 °F 33.8 °F 100% 30.02 in 10.0 mi NE 3.5 mph - N/A   Clear
7:27 AM 33.8 °F - 32.0 °F 93% 30.02 in 10.0 mi Calm Calm - N/A   Clear
7:46 AM 35.6 °F 32.8 °F 35.6 °F 100% 30.02 in 10.0 mi ENE 3.5 mph - N/A   Clear
8:07 AM 35.6 °F - 35.6 °F 100% 30.03 in 10.0 mi Calm Calm - N/A   Clear
8:27 AM 39.2 °F - 37.4 °F 93% 30.03 in 10.0 mi Calm Calm - N/A   Clear
8:46 AM 42.8 °F 41.1 °F 41.0 °F 93% 30.03 in 10.0 mi SE 3.5 mph - N/A   Clear
9:07 AM 42.8 °F 40.1 °F 41.0 °F 93% 30.03 in 10.0 mi SE 4.6 mph - N/A   Clear
9:27 AM 44.6 °F 40.2 °F 41.0 °F 87% 30.03 in 10.0 mi SE 8.1 mph - N/A   Clear
9:46 AM 50.0 °F - 42.8 °F 76% 30.03 in 10.0 mi SE 9.2 mph - N/A   Clear
10:07 AM 51.8 °F - 42.8 °F 71% 30.03 in 10.0 mi SSE 11.5 mph 20.7 mph N/A   Clear
10:27 AM 51.8 °F - 41.0 °F 67% 30.02 in 10.0 mi SSE 11.5 mph 19.6 mph N/A   Clear
10:47 AM 51.8 °F - 39.2 °F 62% 30.02 in 10.0 mi SSE 10.4 mph 18.4 mph N/A   Clear
11:07 AM 53.6 °F - 39.2 °F 58% 30.01 in 10.0 mi SE 10.4 mph - N/A   Clear
11:27 AM 53.6 °F - 41.0 °F 62% 30.01 in 10.0 mi ESE 9.2 mph 19.6 mph N/A   Clear
11:47 AM 55.4 °F - 42.8 °F 63% 30.00 in 10.0 mi SE 12.7 mph 18.4 mph N/A   Clear
12:06 PM 57.2 °F - 41.0 °F 55% 30.00 in 10.0 mi SE 12.7 mph 19.6 mph N/A   Clear
12:27 PM 57.2 °F - 41.0 °F 55% 29.99 in 10.0 mi SE 11.5 mph 18.4 mph N/A   Clear
12:47 PM 57.2 °F - 41.0 °F 55% 29.98 in 10.0 mi SSE 12.7 mph 18.4 mph N/A   Clear
1:06 PM 59.0 °F - 41.0 °F 51% 29.98 in 10.0 mi SSE 11.5 mph 19.6 mph N/A   Clear
1:27 PM 59.0 °F - 41.0 °F 51% 29.97 in 10.0 mi SSE 10.4 mph 18.4 mph N/A   Clear
1:47 PM 59.0 °F - 41.0 °F 51% 29.96 in 10.0 mi SE 9.2 mph 17.3 mph N/A   Clear
2:07 PM 59.0 °F - 41.0 °F 51% 29.96 in 10.0 mi SE 12.7 mph 18.4 mph N/A   Clear
2:27 PM 59.0 °F - 41.0 °F 51% 29.96 in 10.0 mi SSE 15.0 mph 19.6 mph N/A   Clear
2:47 PM 59.0 °F - 41.0 °F 51% 29.95 in 10.0 mi SE 11.5 mph 17.3 mph N/A   Clear
3:07 PM 59.0 °F - 41.0 °F 51% 29.95 in 10.0 mi SE 9.2 mph 18.4 mph N/A   Clear
3:27 PM 59.0 °F - 41.0 °F 51% 29.95 in 10.0 mi SE 9.2 mph 19.6 mph N/A   Clear
3:47 PM 59.0 °F - 41.0 °F 51% 29.94 in 10.0 mi SE 12.7 mph 19.6 mph N/A   Clear
4:07 PM 59.0 °F - 41.0 °F 51% 29.94 in 10.0 mi SSE 12.7 mph 17.3 mph N/A   Clear
4:27 PM 59.0 °F - 41.0 °F 51% 29.93 in 10.0 mi SE 10.4 mph 19.6 mph N/A   Clear
4:47 PM 59.0 °F - 42.8 °F 55% 29.93 in 10.0 mi SE 9.2 mph - N/A   Clear
5:07 PM 59.0 °F - 41.0 °F 51% 29.93 in 10.0 mi SE 10.4 mph 16.1 mph N/A   Clear
5:27 PM 57.2 °F - 41.0 °F 55% 29.93 in 10.0 mi SE 9.2 mph - N/A   Clear
5:47 PM 57.2 °F - 42.8 °F 59% 29.92 in 10.0 mi SE 8.1 mph 17.3 mph N/A   Clear
6:07 PM 57.2 °F - 42.8 °F 59% 29.93 in 10.0 mi ESE 8.1 mph - N/A   Clear
6:27 PM 53.6 °F - 42.8 °F 67% 29.92 in 10.0 mi ESE 8.1 mph - N/A   Clear
6:47 PM 51.8 °F - 41.0 °F 67% 29.92 in 10.0 mi ESE 6.9 mph - N/A   Clear
7:07 PM 51.8 °F - 42.8 °F 71% 29.93 in 10.0 mi SE 9.2 mph - N/A   Clear
7:27 PM 50.0 °F - 42.8 °F 76% 29.93 in 10.0 mi ESE 4.6 mph - N/A   Clear
7:47 PM 48.2 °F - 41.0 °F 76% 29.93 in 10.0 mi ESE 6.9 mph - N/A   Clear
8:07 PM 46.4 °F 42.9 °F 41.0 °F 81% 29.94 in 10.0 mi SE 6.9 mph - N/A   Clear
8:27 PM 44.6 °F 40.7 °F 41.0 °F 87% 29.94 in 10.0 mi ESE 6.9 mph - N/A   Clear
8:47 PM 44.6 °F 42.2 °F 41.0 °F 87% 29.95 in 10.0 mi ESE 4.6 mph - N/A   Clear
9:07 PM 44.6 °F - 41.0 °F 87% 29.95 in 10.0 mi Calm Calm - N/A   Clear
9:27 PM 44.6 °F 42.2 °F 41.0 °F 87% 29.95 in 10.0 mi ESE 4.6 mph - N/A   Clear
9:47 PM 44.6 °F 42.2 °F 41.0 °F 87% 29.95 in 10.0 mi ESE 4.6 mph - N/A   Clear
10:07 PM 44.6 °F 42.2 °F 41.0 °F 87% 29.94 in 10.0 mi ESE 4.6 mph - N/A   Clear
10:27 PM 44.6 °F 43.1 °F 41.0 °F 87% 29.94 in 10.0 mi ESE 3.5 mph - N/A   Clear
10:47 PM 44.6 °F 42.2 °F 41.0 °F 87% 29.93 in 10.0 mi East 4.6 mph - N/A   Clear
11:06 PM 44.6 °F 43.1 °F 42.8 °F 93% 29.93 in 10.0 mi East 3.5 mph - N/A   Clear
11:27 PM 44.6 °F - 42.8 °F 93% 29.93 in 10.0 mi Calm Calm - N/A   Clear
11:46 PM 44.6 °F - 42.8 °F 93% 29.93 in 10.0 mi Calm Calm - N/A   Clear